GFSFLT1_850_dewp_042.txt.gz
Dewpoint
10 10 10 9 8 0 6 6 7 10 10 9 8 8 5 4 5 5 5 7 7 6 5 2 1 1 1 1 1 -0 -5 -7
9 9 9 7 6 -3 -0 5 8 7 9 9 7 7 5 4 6 5 6 6 5 1 -0 1 1 1 2 1 0 -5 -7 -7
9 9 8 6 7 5 0 2 4 7 8 7 6 5 4 5 6 6 5 3 -0 1 1 1 2 2 1 -1 -5 -4 -6 -4
7 7 6 6 7 7 6 5 6 7 8 7 7 6 7 7 6 5 4 2 1 1 2 2 1 -1 -3 -4 -3 -3 -2 -2
5 5 6 6 7 7 8 8 8 8 9 7 7 7 8 7 5 4 2 2 1 3 2 -1 -2 -2 -2 -2 -2 -1 -2 -3
4 4 5 7 7 8 9 9 10 10 9 8 9 8 6 4 3 4 3 2 3 3 1 -1 -1 -1 -1 -1 -2 -3 -6 -7
2 4 4 7 8 9 9 10 10 10 9 9 10 8 5 4 4 4 4 4 2 2 1 0 -1 -1 -2 -3 -6 -14 -19 -12
4 5 7 7 9 9 9 10 10 10 9 10 9 7 5 5 6 5 5 3 3 3 0 -2 -3 -3 -5 -9 -17 -19 -17 -12
6 7 7 8 8 9 9 10 10 10 9 9 9 7 6 6 5 5 4 3 0 -2 -1 0 -3 -8 -11 -16 -21 -17 -10 -9
7 8 8 9 9 9 10 10 10 9 10 8 7 6 6 5 4 3 -1 -1 -0 2 -3 -4 -4 -8 -15 -20 -18 -11 -7 -5
8 8 9 9 9 8 8 8 9 9 9 7 6 6 5 3 1 0 0 1 0 -3 -3 -4 -6 -10 -14 -15 -10 -7 -6 -6
8 8 9 9 9 9 9 9 8 8 8 6 6 6 6 4 1 -1 -1 -3 -3 0 -2 -6 -7 -8 -11 -12 -9 -7 -5 -7
6 7 8 9 9 9 9 9 8 6 6 5 5 5 5 3 0 -1 -1 1 0 -3 -5 -6 -6 -6 -10 -11 -6 -5 -5 -8
7 7 7 7 7 6 6 7 8 6 5 5 5 3 2 1 0 0 -2 -1 -4 -5 -6 -5 -5 -6 -10 -7 -5 -5 -5 -9
6 6 6 5 5 4 4 5 5 5 5 5 4 2 1 0 -1 -2 -2 -2 -3 -5 -4 -5 -6 -9 -7 -6 -5 -5 -5 -7
6 5 4 4 4 4 4 5 5 5 5 4 2 0 -2 -2 -3 -2 -3 -4 -4 -5 -6 -7 -8 -7 -6 -6 -6 -5 -5 -6
2 3 4 3 3 4 5 6 6 5 3 1 0 -1 -2 -2 -3 -3 -3 -2 -4 -5 -6 -8 -8 -7 -6 -6 -5 -5 -4 -5
1 2 3 3 4 4 5 6 6 4 1 -1 -2 -3 -2 -3 -2 -1 -2 -3 -3 -5 -9 -7 -7 -6 -5 -6 -6 -5 -4 -4
-2 -1 3 5 5 5 6 6 3 0 -1 -3 -3 -4 -3 -2 -3 -2 -1 -2 -5 -10 -6 -6 -6 -6 -6 -6 -7 -5 -5 -5

GFSFLT1_850_dewp_048.txt.gz
Dewpoint
7 5 5 6 6 8 8 7 1 -2 1 4 6 9 10 9 9 8 6 5 7 9 8 8 7 7 5 2 1 0 -5 -7
9 8 6 5 6 7 8 8 5 2 2 8 9 10 10 9 9 9 4 5 6 7 8 8 7 4 1 1 1 -3 -4 -5
9 10 9 6 6 6 6 7 7 6 7 8 9 9 9 9 10 7 5 6 6 7 7 7 4 1 2 1 -1 -2 -2 -2
9 9 9 8 7 7 7 6 8 7 6 7 8 9 9 8 9 6 5 6 7 7 6 4 2 3 2 -1 -1 -1 -1 -2
8 8 8 7 7 8 8 8 7 7 6 6 7 7 9 8 9 7 6 6 6 6 4 3 3 2 -0 -1 -0 -1 -3 -5
8 8 7 8 8 8 8 8 9 8 8 7 7 8 9 10 8 6 7 6 5 4 4 4 3 1 -0 -0 -1 -1 1 -6
7 8 8 8 8 8 9 8 8 8 7 7 7 7 8 9 8 8 7 6 5 4 4 3 3 1 0 0 -0 2 -5 -10
7 7 7 8 8 8 8 9 8 6 4 6 6 8 8 9 8 8 7 6 5 4 4 3 3 1 2 1 2 -2 -2 -2
6 6 6 7 8 7 8 8 7 7 5 6 7 9 10 9 9 9 6 5 4 4 4 4 3 4 3 2 2 -2 -12 -15
4 5 6 6 6 6 6 6 7 7 7 8 9 9 10 10 8 9 7 5 5 5 5 4 4 3 2 2 -5 -11 -14 -13
3 3 4 5 5 6 6 5 5 6 7 8 9 10 9 7 6 6 7 6 6 6 5 4 3 3 0 -6 -7 -10 -11 -9
2 3 3 3 4 5 5 5 6 8 9 9 9 8 7 6 6 6 6 6 6 6 3 3 2 -1 -5 -5 -7 -6 -8 -8
4 4 3 4 4 4 5 6 8 9 9 8 7 7 7 7 6 7 7 7 6 4 3 0 -3 -4 -2 -5 -2 -8 -9 -7
5 5 5 5 5 6 7 8 7 7 7 7 7 6 6 6 7 7 6 4 2 1 -1 -2 -0 -3 -2 -2 -7 -7 -7 -6
6 6 7 7 8 8 7 6 6 6 6 7 8 8 7 6 6 4 2 0 -1 -1 0 -3 -3 -1 -1 -3 -5 -6 -6 -6
5 6 7 8 8 8 8 7 7 7 7 8 8 7 6 5 2 1 -2 -1 0 -3 -5 -1 -1 -1 -2 -6 -6 -7 -6 -6
3 4 6 6 6 7 8 8 8 8 8 8 7 6 4 2 0 -1 -1 -2 -2 -3 -0 -0 -1 -3 -7 -6 -6 -7 -6 -6
1 1 1 2 3 4 5 6 7 7 7 6 4 1 0 -1 -2 -2 -2 -1 -1 0 -0 -2 -5 -7 -7 -8 -8 -8 -8 -7
-0 0 1 2 3 4 5 6 6 5 5 4 1 -1 -2 -3 -1 -1 0 0 -0 -2 -6 -8 -8 -10 -9 -9 -10 -9 -9 -8

GFSFLT1_850_dewp_051.txt.gz
Dewpoint
5 6 5 4 6 7 6 5 5 5 4 0 -0 3 7 8 8 8 7 7 5 4 7 8 7 7 7 6 3 1 -1 -5
6 4 4 4 5 7 8 8 7 6 3 -0 -0 3 3 4 8 8 7 7 4 5 7 8 8 7 6 4 1 1 -2 -2
9 7 5 5 5 5 6 8 8 5 1 -2 2 3 6 8 8 9 8 7 4 5 7 8 7 7 5 2 2 -2 -1 -1
9 9 8 7 5 5 6 7 7 8 4 1 2 7 8 9 9 8 8 6 5 6 7 8 7 5 2 2 1 -1 -1 -2
8 9 9 9 8 7 6 6 6 8 8 6 6 6 8 7 7 8 8 6 6 6 8 7 5 3 2 2 -1 -0 -0 0
6 6 7 8 7 7 7 7 7 8 9 9 8 7 7 8 8 10 8 6 6 7 7 5 4 3 3 1 -0 -0 2 1
4 5 7 7 7 7 7 7 8 9 9 8 8 8 7 7 8 9 9 7 7 7 5 5 4 3 2 1 1 3 1 3
5 5 6 7 7 8 7 7 8 8 8 8 8 7 8 8 9 10 9 8 7 6 5 4 3 3 4 3 3 1 3 0
6 5 5 6 7 7 8 8 8 7 8 8 8 6 7 9 10 10 9 8 8 6 5 4 3 4 4 2 2 2 -2 -9
3 6 6 6 6 6 6 8 8 7 7 8 8 7 6 6 7 10 9 9 8 6 5 4 4 5 1 2 2 -3 -10 -12
1 2 4 5 6 6 7 8 7 7 6 6 8 7 7 8 9 9 9 9 7 6 5 4 4 1 2 2 -6 -7 -6 -3
1 2 2 3 4 4 5 6 6 6 6 5 7 8 8 9 9 9 9 8 7 7 5 4 3 2 1 -5 -4 -1 -1 -8
2 2 2 3 4 4 4 5 5 5 6 6 8 8 6 7 8 6 7 8 7 7 4 3 3 2 -3 -1 1 -2 -8 -8
2 2 3 2 2 3 4 5 5 7 7 7 7 6 7 7 7 8 8 7 7 5 3 3 0 -2 1 -0 -1 -4 -5 -6
6 6 6 6 6 6 6 7 7 7 8 8 8 9 9 8 8 7 7 6 5 3 1 0 0 1 -0 -0 -1 -4 -6 -6
5 6 7 7 8 8 8 9 9 10 10 9 9 8 8 7 6 5 3 1 1 0 0 0 1 -0 -0 -1 -3 -6 -6 -7
4 5 6 6 7 7 7 7 8 9 8 8 7 7 6 4 2 1 -0 -1 -0 -0 0 0 -1 -1 -1 -5 -6 -6 -6 -6
2 2 2 2 3 4 5 5 6 7 7 6 6 5 3 1 -0 -1 -2 -1 -0 -0 -0 -1 -1 -3 -6 -7 -8 -7 -7 -7
1 1 0 1 3 4 5 5 6 5 5 3 2 0 -0 -1 -1 -1 -0 -0 -0 -0 -4 -7 -8 -10 -9 -9 -9 -9 -9 -11

GFSFLT1_850_dewp_054.txt.gz
Dewpoint
10 9 9 8 8 7 7 7 7 4 7 -0 1 3 4 5 7 7 8 8 7 7 6 7 8 7 6 5 5 5 1 -1
9 9 8 8 8 8 8 8 8 9 9 8 6 3 6 4 6 8 7 7 6 7 7 7 8 7 6 6 5 2 1 -1
9 9 8 8 8 9 8 8 9 10 9 8 7 6 7 5 6 6 7 7 7 7 6 7 8 8 7 6 4 2 2 -1
9 8 8 9 8 9 9 10 10 11 10 9 8 8 8 4 2 3 7 7 7 6 6 7 7 7 7 6 3 2 2 1
9 10 9 8 8 8 8 8 9 11 10 9 8 6 7 7 4 7 7 7 8 6 6 7 7 7 7 5 2 2 1 1
8 9 10 10 9 9 9 9 9 10 10 10 10 8 7 8 9 7 7 8 8 6 6 7 8 7 6 3 2 2 0 1
6 8 10 10 11 11 11 10 9 10 10 8 10 10 9 10 7 7 8 8 9 7 7 7 7 6 5 3 3 2 1 3
7 7 8 10 10 11 11 10 10 10 10 9 9 9 9 9 9 6 8 9 9 8 7 7 6 5 4 3 3 2 2 2
6 7 8 9 10 11 9 8 10 10 9 7 8 8 8 8 8 8 9 8 9 8 7 7 6 5 4 3 2 2 2 2
4 5 7 8 10 11 10 11 11 11 9 9 8 7 8 8 8 7 8 9 9 8 8 7 6 5 3 4 3 2 1 -10
3 4 6 8 9 10 11 11 11 11 11 9 8 8 9 10 8 7 7 8 9 9 8 7 6 4 3 3 2 2 -1 -0
4 4 5 7 8 9 10 10 10 11 11 10 10 10 9 9 9 9 8 8 9 8 7 7 6 4 3 2 2 0 0 0
6 6 7 7 8 8 9 9 10 10 11 11 10 9 8 9 9 8 8 8 8 8 8 7 5 3 2 2 -0 0 -0 -1
5 6 7 8 9 9 9 9 9 10 10 9 8 8 9 8 8 9 9 8 8 7 7 5 4 3 2 0 1 -0 -0 -1
6 7 8 8 9 9 10 9 6 7 8 8 9 10 9 9 8 8 8 7 7 7 5 3 2 2 1 0 0 -1 -1 -1
7 7 9 9 10 9 9 8 9 9 10 10 10 9 8 8 7 7 6 6 5 3 2 1 0 1 1 0 -1 -1 -1 -1
6 7 8 9 9 8 9 9 9 9 9 8 8 7 7 6 5 4 3 2 2 1 1 0 1 1 0 -0 -1 -2 -3 -3
5 6 7 6 6 6 6 6 7 7 7 7 6 5 4 3 2 1 1 -0 -0 0 0 0 0 -0 -1 -4 -6 -7 -5 -5
4 4 4 4 4 4 5 5 6 5 5 5 4 2 2 1 0 0 -0 -0 0 0 -0 -1 -2 -2 -6 -9 -9 -10 -7 -6

GFSFLT1_850_dewp_057.txt.gz
Dewpoint
9 7 7 6 6 6 7 7 7 7 6 7 7 7 8 6 6 8 6 8 9 7 8 9 9 8 8 7 6 5 4 2
9 8 7 6 7 7 8 8 8 7 7 7 7 6 6 7 7 9 8 8 9 9 9 9 8 7 7 7 6 5 4 2
8 8 8 8 7 7 7 7 7 7 6 6 6 6 6 7 8 9 9 8 9 9 9 9 8 7 7 7 6 5 4 3
8 8 8 8 8 8 7 8 8 8 7 7 6 6 5 6 7 9 6 7 7 7 8 9 8 7 7 7 6 5 4 3
8 8 8 8 8 8 8 8 8 8 9 8 7 6 6 6 8 9 7 2 3 6 8 9 8 8 7 7 6 6 5 3
7 7 7 8 8 8 9 9 9 9 9 8 8 8 7 6 8 9 8 3 5 8 8 8 8 8 7 7 6 5 4 4
5 7 7 7 8 9 9 9 8 8 9 10 9 9 9 7 7 10 10 9 7 7 9 8 8 7 7 7 6 5 4 3
4 5 7 8 8 9 9 9 9 9 9 9 10 10 10 10 9 10 10 9 10 9 8 8 8 8 7 6 6 5 3 2
4 4 6 8 9 10 10 10 10 9 10 10 11 11 11 11 11 10 10 10 9 9 9 9 7 6 6 6 5 4 3 2
2 4 5 6 8 10 11 11 11 10 10 11 10 7 11 11 11 11 11 10 9 8 9 9 8 6 6 6 5 3 2 2
1 2 4 6 7 9 11 12 11 11 11 11 12 12 11 11 11 10 10 9 8 8 9 9 8 6 6 6 4 3 2 2
2 2 3 5 6 9 11 11 11 11 11 11 11 11 11 10 10 10 10 9 9 9 9 8 7 7 6 5 3 3 2 2
3 4 4 5 7 8 10 11 11 11 11 11 11 11 11 11 10 10 10 9 9 9 8 8 7 6 5 4 3 2 1 1
4 6 7 7 7 8 9 10 10 10 10 11 11 11 10 11 10 10 9 9 8 8 8 7 6 4 3 2 1 1 1 0
1 3 6 7 8 9 10 10 11 11 11 11 11 10 10 9 8 7 8 8 7 7 7 6 4 3 2 1 1 1 0 -0
2 3 5 8 9 10 11 10 10 9 9 9 9 9 8 8 8 8 7 7 6 6 5 4 2 1 1 1 1 1 -0 -1
3 5 8 10 10 10 9 8 9 9 9 9 8 8 7 7 6 6 6 5 5 4 3 2 2 1 1 1 -0 -0 -1 -1
5 7 9 9 9 9 9 7 7 8 7 7 6 5 5 4 3 3 3 2 1 1 1 1 1 0 -2 -2 -4 -6 -6 -5
6 7 7 7 7 6 6 5 5 4 4 4 4 3 3 2 2 1 0 -0 0 -0 -0 -2 -2 -2 -3 -4 -7 -10 -10 -7

GFSFLT1_850_dewp_060.txt.gz
Dewpoint
9 9 8 8 7 7 6 6 5 5 4 5 6 7 5 4 5 7 8 6 3 2 5 7 8 8 7 7 7 6 5 4
7 8 7 7 6 6 5 5 5 4 4 5 7 8 7 3 6 6 7 6 6 7 8 8 9 8 8 7 7 6 5 4
8 7 7 6 5 6 6 5 4 5 6 5 8 6 4 2 5 6 7 6 7 7 7 8 9 8 9 7 7 7 6 5
9 7 7 6 6 6 7 5 6 7 9 7 7 5 4 5 6 6 8 6 5 6 6 6 8 9 8 7 7 7 6 5
9 8 8 7 7 7 7 7 7 6 6 6 6 6 6 6 5 7 7 5 6 7 8 7 6 7 7 7 7 7 5 5
8 8 8 8 8 8 7 7 7 7 7 7 7 7 6 5 5 7 8 8 7 5 6 5 6 6 8 8 8 7 5 5
8 8 8 8 8 8 8 7 8 8 8 7 8 8 8 7 7 7 8 8 7 4 3 4 7 8 9 8 8 7 5 6
7 8 8 8 8 8 8 8 9 8 9 9 9 8 9 8 7 7 8 9 8 7 7 7 8 8 8 8 8 6 6 6
4 6 7 7 8 8 8 9 8 9 9 9 9 9 9 9 9 8 9 8 8 9 9 9 8 8 8 8 7 6 6 5
4 4 6 7 7 8 9 9 9 9 9 9 9 8 5 10 10 10 11 9 10 10 10 9 9 9 8 7 6 5 4 6
-1 3 4 7 8 8 9 9 9 10 9 9 9 7 9 9 9 11 9 10 10 10 9 9 9 8 7 6 6 5 6 5
0 1 4 5 7 8 9 10 10 11 11 11 10 10 11 10 9 9 8 10 9 10 8 8 8 8 6 6 6 6 4 3
2 2 2 5 5 7 10 11 12 11 11 11 11 11 11 8 9 10 9 10 9 9 8 8 8 7 6 6 5 4 3 2
3 4 3 4 6 7 11 11 11 11 10 9 10 9 9 10 10 10 10 9 9 8 8 7 7 6 5 5 3 2 2 2
3 5 6 6 6 8 9 10 10 10 10 10 9 10 10 10 10 9 9 8 8 7 7 7 5 5 4 3 2 2 2 1
-0 3 6 8 8 9 9 10 10 10 10 10 10 10 9 9 8 8 7 7 7 7 6 6 4 3 2 2 1 1 1 0
-0 3 6 8 9 10 10 10 11 10 10 10 10 9 8 8 7 6 6 6 5 5 4 3 3 2 1 1 1 0 -1 -1
-1 3 7 9 11 10 10 10 10 9 9 9 8 7 6 6 5 4 4 3 2 1 1 1 1 1 -1 -2 -4 -6 -8 -9
3 6 9 9 9 9 8 7 7 7 7 6 5 5 4 3 3 2 1 0 0 0 -0 -1 -2 -1 -3 -4 -5 -6 -8 -14

GFSFLT1_850_dewp_063.txt.gz
Dewpoint
8 8 7 7 7 7 7 6 5 4 4 5 6 5 3 2 6 5 2 2 2 5 7 5 7 7 7 6 6 6 5 5
8 7 6 6 6 6 6 6 6 6 7 7 4 2 2 2 4 2 5 6 6 4 1 4 6 6 7 7 7 7 6 5
8 7 5 6 6 6 6 6 6 7 5 3 3 4 2 2 2 5 6 6 7 4 2 4 6 8 8 8 8 7 7 6
8 7 5 6 5 4 4 4 4 4 4 5 6 7 7 7 3 5 6 6 6 5 4 5 6 8 8 8 7 7 6 7
8 8 7 3 2 3 3 3 3 3 5 5 6 7 7 5 1 0 2 4 5 6 6 6 7 7 7 7 7 8 7 7
7 7 7 6 3 3 3 3 3 5 6 8 8 6 5 3 4 5 5 5 6 6 6 7 7 8 8 8 7 7 8 7
8 7 7 7 6 6 3 3 3 3 6 7 8 7 6 6 6 6 6 6 7 8 8 8 7 8 8 7 8 9 9 8
9 8 7 7 8 7 7 6 4 6 7 6 6 7 7 7 6 6 6 6 6 6 7 7 7 6 6 8 9 9 8 8
8 8 8 8 7 8 8 7 7 7 7 8 7 6 7 9 8 7 7 7 7 7 8 8 8 7 8 8 8 8 8 7
8 8 8 8 7 8 8 8 8 7 7 8 8 8 8 8 8 8 8 8 8 9 8 9 9 9 9 9 8 8 7 6
7 8 7 7 7 7 7 7 7 7 7 8 8 9 9 9 9 9 9 9 9 9 8 9 9 9 9 8 8 7 6 5
3 6 7 6 7 7 7 7 8 8 8 8 8 8 8 8 8 8 8 6 8 8 9 9 9 8 7 8 7 6 6 6
0 3 5 7 7 7 7 7 8 8 9 9 9 9 9 9 9 9 8 10 9 9 9 9 8 8 7 7 6 6 6 4
1 1 2 5 8 8 8 9 10 9 10 10 10 8 6 9 8 10 10 9 9 9 8 8 7 7 7 6 5 5 4 3
2 3 3 4 7 9 9 10 8 7 8 9 9 9 8 10 10 10 10 9 8 8 8 7 8 7 6 5 4 3 2 2
3 3 5 5 6 8 9 9 10 10 8 9 10 10 11 10 9 9 8 8 8 8 7 7 6 5 4 3 3 2 2 1
3 5 6 6 6 8 10 10 10 9 9 10 10 10 10 10 9 9 8 8 7 6 6 5 5 4 3 2 2 1 1 -0
1 5 7 7 4 7 9 10 10 10 10 10 10 9 9 8 8 7 7 6 5 5 3 2 2 2 1 1 -0 -3 -6 -8
-2 5 7 7 7 8 9 10 10 10 9 9 9 8 8 7 6 5 5 4 2 0 0 1 0 -1 -2 -3 -5 -7 -9 -10

GFSFLT1_850_dewp_066.txt.gz
Dewpoint
7 6 7 8 8 8 9 9 8 6 4 4 6 8 5 3 2 1 1 2 2 3 3 2 1 6 7 7 6 6 6 6
8 7 7 7 7 7 8 8 7 6 4 5 5 4 4 3 1 1 5 4 2 1 -1 1 4 4 5 6 7 6 6 6
8 7 6 6 7 7 7 7 6 5 3 4 5 4 3 2 2 4 6 6 6 2 0 2 0 2 7 7 7 7 7 6
8 7 6 6 6 6 7 6 6 5 4 4 5 4 4 2 3 4 4 3 4 5 4 4 2 5 6 6 7 7 8 8
8 7 4 5 5 5 6 6 6 5 5 6 6 4 3 3 1 3 2 0 2 3 4 3 4 5 5 5 7 8 8 8
8 7 4 1 4 4 5 6 6 6 5 3 3 3 2 1 2 2 -1 0 4 4 5 4 3 5 6 6 7 8 8 8
8 8 6 1 2 3 3 4 4 4 3 3 4 4 4 3 1 0 -1 -2 2 3 4 5 5 6 6 6 7 8 8 8
8 8 7 5 1 1 2 2 2 2 4 5 4 4 4 4 3 2 2 4 5 5 6 6 7 8 8 8 8 9 8 8
8 8 7 6 5 3 2 1 1 1 3 4 5 6 7 7 6 6 6 6 6 5 6 7 8 8 8 8 9 8 8 9
8 7 7 7 6 5 5 3 1 1 1 2 5 6 7 8 8 8 7 7 6 6 6 7 8 8 8 8 8 8 8 8
7 8 8 8 7 6 6 6 5 4 3 2 6 6 6 7 7 7 8 8 7 8 7 8 8 8 9 8 8 7 8 8
5 8 8 8 8 8 7 7 7 7 6 5 6 7 7 8 8 9 10 9 8 5 7 6 8 8 9 8 8 7 7 7
3 6 6 8 8 8 8 8 8 8 8 8 8 8 9 8 9 9 8 5 7 9 7 7 10 9 8 8 7 7 7 6
2 2 5 8 8 8 8 8 9 9 9 9 9 9 9 9 9 10 7 6 5 6 9 9 9 8 8 7 7 7 6 5
1 3 3 4 6 7 8 8 9 9 8 6 10 10 9 6 6 7 7 8 8 10 9 9 8 8 7 7 6 6 5 4
0 2 2 3 4 6 8 8 8 9 9 5 5 7 8 10 9 8 10 10 9 8 8 8 8 8 7 6 5 4 3 2
0 1 1 2 2 4 8 8 9 9 9 7 7 6 10 10 10 10 10 9 8 8 8 7 7 6 5 4 4 3 2 1
1 2 1 1 0 -0 4 9 10 10 9 8 8 10 10 10 9 8 8 8 7 7 6 6 5 4 4 3 2 1 1 1
-1 2 2 3 3 4 7 8 9 10 10 10 10 9 9 8 8 8 7 6 6 5 5 4 3 3 2 1 1 -1 -4 -9

GFSFLT1_850_dewp_069.txt.gz
Dewpoint
8 6 7 8 7 8 9 9 9 9 8 6 7 7 7 6 4 3 2 2 2 2 3 3 4 4 4 5 6 6 6 6
9 6 6 8 7 8 8 9 9 8 7 7 8 7 7 6 4 4 4 4 3 3 4 5 5 4 1 3 6 7 6 6
9 7 5 7 7 7 8 9 9 6 7 8 7 5 6 4 3 5 6 3 2 2 5 6 3 2 1 3 6 7 7 6
9 8 4 6 7 7 7 8 8 6 5 8 7 7 6 4 2 2 2 1 2 3 5 4 4 2 3 4 6 7 7 7
8 8 5 3 5 6 7 8 7 6 5 4 4 6 6 4 3 1 1 2 3 5 6 6 5 4 5 3 5 7 8 8
7 7 7 2 4 5 6 7 7 6 5 4 5 5 4 4 3 2 2 2 4 3 3 3 3 4 6 6 6 6 6 7
7 7 8 5 3 4 5 6 6 6 5 4 4 4 5 4 4 4 2 2 3 2 -0 0 2 5 6 6 7 7 7 8
6 8 7 7 3 2 3 4 5 5 6 5 4 5 6 4 4 3 2 1 2 0 -2 -1 1 3 5 7 7 8 8 8
6 5 8 7 6 1 -0 1 4 4 5 4 4 3 2 1 1 1 1 1 -0 -2 -2 0 3 5 6 8 8 8 8 9
5 5 7 8 7 4 -1 -1 -0 2 1 3 3 3 3 4 4 3 2 2 4 5 5 5 6 6 7 7 8 8 9 9
6 6 6 8 7 7 3 0 -1 0 1 1 2 3 3 3 4 5 6 7 8 8 8 8 8 7 7 8 9 8 8 8
6 6 6 7 8 7 6 4 2 1 2 2 3 4 4 5 5 6 7 8 8 9 9 7 8 8 8 8 9 8 7 6
5 5 6 7 7 7 7 7 5 3 2 1 1 1 2 3 4 6 6 7 8 5 6 5 8 9 8 8 9 9 8 7
2 5 6 6 6 7 7 7 7 6 5 5 5 6 3 4 4 5 7 8 8 4 3 7 9 9 8 9 9 9 7 7
3 3 4 4 5 6 7 7 8 8 8 7 7 7 7 7 8 8 8 10 10 7 6 6 6 7 9 9 8 8 7 7
1 1 1 2 4 5 7 8 8 8 8 8 8 8 8 9 9 9 7 8 9 8 9 8 8 9 9 9 8 7 7 5
-1 1 1 1 0 1 4 6 7 8 8 9 9 9 9 10 10 9 8 7 7 8 8 9 8 8 8 8 7 6 5 4
-3 0 2 -1 -1 -2 -2 2 6 8 9 9 9 9 10 7 9 9 8 8 9 9 8 8 8 8 7 7 6 5 4 3
-3 -4 -0 1 1 0 1 3 6 8 8 9 10 10 9 9 8 9 10 9 9 9 8 8 7 7 6 5 4 3 2 1

GFSFLT1_850_dewp_072.txt.gz
Dewpoint
10 8 6 7 7 9 9 9 9 9 9 8 8 6 6 8 6 5 3 3 4 4 3 3 3 4 4 5 5 5 6 6
9 8 7 7 7 7 9 9 9 9 8 7 8 8 8 7 8 4 4 4 3 2 2 2 4 4 4 5 6 6 6 6
9 8 7 8 7 7 8 8 9 9 8 8 9 9 9 8 7 6 3 3 3 3 2 1 4 4 5 6 6 6 7 7
9 8 7 6 7 7 8 8 9 9 8 8 7 7 8 6 5 4 4 4 4 3 3 2 4 5 5 5 5 6 6 7
8 8 8 4 5 6 7 8 8 9 7 7 7 7 7 6 5 5 4 5 4 4 3 3 1 4 6 6 4 3 5 7
6 7 7 6 4 4 6 7 8 8 6 7 8 7 5 5 5 4 4 5 5 5 3 1 0 3 6 7 7 6 6 6
6 7 7 7 3 3 4 6 7 7 6 5 8 6 5 5 4 3 3 2 2 2 1 1 1 2 1 5 5 5 6 7
4 6 7 7 6 2 3 4 6 7 6 5 4 5 6 6 4 3 3 2 2 2 1 2 2 1 0 1 3 5 6 8
3 3 5 5 7 4 1 2 4 5 5 4 4 4 4 5 5 4 3 4 4 2 2 2 2 1 -0 0 2 5 7 8
2 4 4 4 6 7 2 -0 2 4 5 5 4 3 4 5 4 4 4 4 4 3 2 2 2 1 0 4 6 7 6 6
2 3 4 4 4 7 7 2 -1 1 4 5 5 5 4 4 4 4 3 2 3 2 1 1 2 6 7 7 8 8 6 7
-0 1 4 6 5 5 7 7 3 0 1 2 4 4 4 4 3 3 3 3 2 3 4 6 8 8 8 7 7 8 8 9
2 3 4 6 6 6 7 8 7 5 0 -1 -1 -1 -0 -1 -1 0 1 2 4 5 7 7 8 7 8 5 6 9 8 9
1 4 5 4 5 6 6 7 7 7 6 2 -0 -1 -1 -0 0 1 3 3 4 5 6 5 8 5 7 7 7 8 8 9
-1 0 1 2 3 5 5 6 6 7 7 6 4 2 1 1 2 3 3 4 3 6 6 7 8 4 4 6 7 8 8 8
-3 -3 -2 -0 1 3 3 4 5 6 7 7 7 6 4 3 3 3 4 6 7 7 6 7 9 6 8 8 7 8 8 8
-3 -4 -2 -2 0 1 1 1 2 5 7 7 7 8 8 7 6 6 6 6 8 9 8 8 9 9 9 8 8 8 8 7
-2 -3 -3 -3 -2 -1 -0 -0 2 2 3 6 8 8 8 8 8 8 8 8 9 9 9 9 9 8 9 9 8 7 7 6
-3 -3 -2 -3 -2 -0 -0 1 2 2 4 6 7 8 8 9 9 9 9 9 8 9 9 8 8 8 8 8 8 7 6 5

GFSFLT1_850_dewp_075.txt.gz
Dewpoint
9 9 8 6 8 9 9 9 9 9 9 8 9 9 8 8 3 -0 -1 3 4 4 4 4 5 5 5 5 5 5 5 5
10 9 8 6 8 9 9 9 9 9 9 8 9 8 9 6 6 1 5 4 5 5 4 5 5 4 5 5 5 5 5 5
9 9 8 6 7 8 8 9 9 9 9 8 7 8 8 7 7 4 4 4 5 4 5 4 2 3 5 6 6 6 6 6
8 8 8 7 7 7 8 9 8 9 9 8 8 7 7 8 8 5 4 4 4 4 3 2 2 4 5 6 6 6 6 7
8 8 7 7 5 6 7 8 9 9 9 8 7 8 8 7 7 5 5 5 5 4 3 3 4 3 4 4 4 5 6 7
6 6 6 6 4 4 6 8 9 9 8 8 8 8 8 8 7 6 5 5 5 4 4 4 5 4 4 3 5 6 6 7
5 5 6 6 5 4 5 7 8 8 8 8 8 7 8 8 7 6 5 4 5 4 4 4 4 4 3 4 3 4 5 4
5 6 6 6 6 2 4 6 7 7 8 7 7 7 7 7 6 6 5 5 4 4 6 5 4 3 3 3 2 3 4 5
4 4 5 5 5 4 1 3 5 7 7 6 6 8 7 6 5 6 5 4 4 5 6 5 4 4 3 2 2 1 1 3
4 4 4 4 4 5 1 -1 2 5 6 5 5 6 7 6 5 5 5 4 4 4 3 2 3 2 2 3 3 2 6 7
4 4 3 4 5 5 6 1 -3 0 3 4 3 3 4 6 6 5 5 5 4 3 3 3 4 4 3 2 2 2 7 7
3 6 6 4 4 5 6 6 2 -2 -1 2 3 3 3 3 3 4 4 5 4 3 3 3 4 4 2 2 3 7 7 8
3 4 5 4 4 5 5 6 7 5 -1 -3 1 3 2 1 -1 -1 0 1 2 2 2 2 2 2 2 2 6 7 8 8
-1 4 4 4 5 5 6 6 6 7 5 3 -1 -1 2 2 1 1 1 1 1 1 2 1 2 4 6 7 8 7 8 7
-2 -0 1 2 3 4 5 5 6 7 7 7 5 2 -1 -1 0 1 2 1 1 1 2 3 4 5 6 6 8 6 8 9
-3 -3 -3 -0 0 -0 1 4 6 6 7 7 7 7 5 1 0 0 1 1 1 1 2 2 4 6 7 8 8 6 7 7
-4 -3 -3 -3 -2 -2 -2 -1 1 4 5 5 6 7 7 7 4 3 2 2 2 3 4 4 7 6 6 7 9 7 8 7
-3 -3 -3 -3 -4 -2 -2 -2 -2 1 2 3 5 6 7 7 7 6 6 4 4 5 6 7 8 9 9 9 9 8 8 8
-5 -4 -3 -3 -2 -3 -2 0 -2 -1 1 2 4 5 7 7 7 7 7 7 7 8 8 9 8 9 9 9 8 8 8 7

GFSFLT1_850_dewp_078.txt.gz
Dewpoint
10 10 10 9 8 8 9 9 9 9 9 9 9 9 8 6 4 4 1 1 4 2 -1 -2 -2 -2 0 1 0 -2 2 1
10 10 10 9 6 8 8 9 9 9 9 9 9 8 7 5 5 3 3 -1 3 -4 -2 1 1 3 4 5 3 3 4 3
10 10 10 8 6 8 9 9 9 9 9 8 9 8 6 7 5 0 -4 -3 -3 -2 2 3 5 5 4 5 5 5 6 4
9 9 9 9 6 8 9 8 9 9 9 8 8 9 8 8 4 -1 -4 -1 3 3 5 5 4 3 3 5 6 6 6 6
8 9 9 9 8 6 7 8 8 8 9 8 8 8 9 5 4 0 3 4 5 5 5 4 4 3 2 4 6 6 7 8
7 9 8 8 8 4 7 8 9 9 8 8 8 8 8 5 5 3 5 5 5 5 4 3 3 2 2 4 6 6 6 7
7 8 8 8 8 6 8 9 9 8 9 9 9 8 7 8 8 5 4 4 4 4 4 4 3 3 4 3 4 5 5 6
6 8 8 8 8 8 7 8 9 8 9 9 8 8 8 7 7 7 5 4 4 4 5 4 3 3 4 3 5 5 5 5
6 7 8 8 8 7 1 8 9 8 9 8 8 8 8 8 8 8 7 4 5 4 4 5 4 4 4 5 5 6 7 3
5 6 7 8 8 6 -0 3 8 8 8 8 8 8 8 8 8 8 6 5 5 4 5 5 4 6 7 5 6 7 8 8
4 6 7 8 8 8 5 -0 5 8 8 8 8 8 8 8 8 8 7 6 6 5 6 6 6 5 6 7 7 7 7 8
5 6 7 8 8 9 8 4 1 6 8 8 8 7 8 8 8 7 7 7 7 7 7 7 7 7 7 7 7 8 8 4
5 6 7 8 8 8 8 8 6 3 4 7 5 6 7 8 7 6 6 6 7 7 7 7 7 7 7 7 7 4 4 3
4 6 7 7 8 8 8 8 7 7 7 4 6 5 6 5 4 7 8 8 7 7 7 7 7 6 6 6 4 3 2 4
-1 4 6 7 8 8 8 8 8 8 7 6 5 2 0 1 2 5 6 7 7 7 7 7 7 7 7 2 3 5 5 6
-3 -0 4 6 8 8 8 8 7 7 8 8 6 5 4 4 4 3 3 5 6 6 6 5 5 6 4 3 3 5 6 6
-3 -2 -2 3 6 7 8 7 5 5 6 6 8 8 7 5 4 4 5 5 6 7 7 5 3 3 2 2 3 4 5 8
-2 -2 -2 -3 1 4 4 2 6 4 3 5 7 8 8 8 8 7 6 6 7 6 6 4 5 5 2 3 6 6 6 6
-1 -1 -0 -1 -2 0 2 7 3 2 4 3 4 6 6 8 8 8 8 8 7 7 7 8 7 6 4 6 7 8 8 8

GFSFLT1_850_dewp_084.txt.gz
Dewpoint
6 7 8 9 9 9 9 9 10 9 9 9 9 9 9 9 9 9 10 10 9 7 8 8 8 7 8 6 4 4 4 4
5 7 8 9 9 9 9 9 9 9 9 9 9 9 8 8 8 8 9 8 7 7 6 7 7 7 7 6 5 4 4 3
5 8 9 9 9 9 9 9 9 9 9 9 9 9 9 9 8 7 8 7 5 6 6 4 5 7 5 1 1 1 1 3
6 8 9 10 9 9 9 9 8 9 9 9 9 9 9 8 7 7 6 7 7 5 4 5 4 2 2 3 2 0 3 3
5 8 9 10 10 10 9 10 9 8 9 9 9 8 8 8 7 6 6 6 4 4 3 4 3 2 3 3 -0 1 4 3
2 8 9 10 10 10 9 10 9 9 9 9 9 9 8 6 5 5 4 4 4 4 5 4 3 1 2 1 2 5 7 6
-1 7 9 9 10 10 9 9 10 10 9 9 9 9 8 5 4 4 4 4 4 3 5 3 0 2 5 3 5 6 6 6
-1 7 8 9 9 9 9 9 9 10 9 9 9 8 8 7 4 3 3 2 3 1 1 3 3 3 2 5 6 5 5 5
0 5 8 8 9 9 9 8 9 9 9 9 9 9 8 8 6 4 4 2 3 3 4 4 4 1 3 5 5 6 5 4
-0 3 7 8 9 9 8 9 10 9 9 9 9 9 9 8 6 5 4 3 3 4 3 2 2 3 5 5 5 5 5 4
-2 -0 6 7 8 9 9 8 9 9 10 10 9 9 9 8 7 5 4 3 2 -0 -1 -0 1 1 5 5 5 4 5 3
-1 1 5 7 8 8 9 8 8 9 9 9 9 9 9 8 8 8 7 6 1 -1 -3 -1 2 5 5 5 4 4 4 4
2 2 3 7 7 8 9 9 8 9 9 9 8 9 9 9 8 8 8 8 5 1 -1 -1 3 4 5 5 4 4 4 6
-0 3 3 5 7 8 9 9 8 7 8 9 9 8 9 9 8 8 9 8 8 6 3 5 3 4 4 3 4 4 4 5
-3 -1 4 4 6 7 8 9 9 8 8 9 9 9 9 9 8 9 9 9 9 9 8 7 7 8 7 7 6 7 6 5
-4 -3 -2 3 5 6 7 8 9 9 8 7 8 9 9 10 10 10 8 8 9 9 9 8 8 8 8 7 7 7 5 6
1 -0 -1 -1 1 5 6 7 8 9 9 8 8 8 9 9 9 9 9 9 8 8 9 9 8 8 8 7 7 7 8 8
2 2 1 1 1 1 6 6 7 8 9 9 9 8 8 9 10 9 9 9 9 9 9 8 8 8 7 7 7 8 8 8
2 4 4 5 4 2 2 2 7 7 8 9 10 10 9 9 10 10 9 9 9 9 9 9 9 8 8 8 8 8 8 8

GFSFLT1_850_dewp_087.txt.gz
Dewpoint
3 5 6 8 9 9 9 10 9 8 9 9 9 8 9 8 9 10 10 11 11 10 10 7 6 1 7 6 6 6 6 6
3 5 7 8 9 9 9 9 9 9 9 9 9 9 9 9 8 9 9 9 10 10 9 9 6 4 7 6 5 5 5 5
4 6 7 8 8 9 9 9 8 9 10 9 9 8 9 8 9 10 10 10 10 10 8 6 5 8 7 6 4 4 5 5
5 6 7 8 9 9 9 9 7 9 9 10 9 8 8 8 8 9 9 9 9 8 7 9 8 8 7 5 4 4 4 4
5 7 8 8 9 9 9 8 6 8 9 9 9 8 9 8 9 9 9 9 8 8 7 8 7 8 7 5 3 1 1 1
6 6 7 8 9 9 9 8 7 7 8 9 8 9 8 8 8 8 8 7 7 8 7 7 5 5 5 2 1 1 2 1
2 5 7 9 9 9 9 8 7 9 9 9 9 9 8 8 8 7 8 7 7 7 6 5 5 4 3 1 2 2 0 2
7 8 9 9 9 9 9 8 7 9 9 9 9 8 8 8 8 7 7 7 7 5 4 4 3 2 2 3 3 1 1 3
7 8 8 9 9 9 9 8 5 9 9 8 8 8 8 8 7 7 6 6 4 4 5 5 3 3 3 2 3 3 3 6
7 7 7 8 8 8 8 8 5 8 9 9 8 8 8 8 8 7 5 4 4 3 4 5 4 2 2 3 5 3 5 5
4 5 7 7 7 7 8 8 6 4 9 9 9 8 8 8 8 7 5 4 4 3 3 3 3 2 3 3 3 4 4 4
1 6 6 7 7 7 8 8 7 6 7 9 9 9 9 8 8 8 7 6 4 4 2 2 2 1 3 4 3 3 4 5
2 3 6 7 7 8 8 8 8 6 8 8 9 9 8 8 8 8 7 7 6 4 3 3 3 3 3 4 2 3 5 5
-4 5 6 7 7 8 8 8 8 7 7 8 8 9 9 9 9 8 8 7 7 6 4 3 2 0 1 1 1 2 3 5
0 -0 6 8 7 7 8 8 8 8 8 9 9 8 8 9 9 8 8 8 8 8 7 7 7 3 -1 -1 1 0 2 5
2 3 2 1 6 9 8 8 8 8 8 7 8 9 9 8 7 8 8 9 8 8 8 8 8 6 4 -0 -1 0 2 4
3 3 4 6 6 4 7 9 8 8 9 8 7 8 9 9 9 8 8 8 8 8 9 9 8 7 7 6 4 2 3 3
4 4 5 6 6 5 4 6 9 9 8 9 9 8 7 9 10 10 9 9 9 9 8 9 9 9 8 8 7 7 8 8
3 4 4 4 5 4 5 5 6 8 10 9 9 9 9 8 9 9 10 10 10 10 9 9 9 9 9 9 9 9 8 8

GFSFLT1_850_dewp_090.txt.gz
Dewpoint
-0 3 4 5 6 7 8 8 10 10 9 8 9 9 10 9 9 11 11 10 11 11 10 9 9 5 -6 -4 1 6 5 6
1 3 5 6 7 8 8 8 9 9 8 8 9 9 9 9 9 9 9 11 11 11 11 10 9 -3 0 2 -0 2 5 6
2 4 6 7 6 8 8 8 8 8 9 7 9 8 9 9 8 9 9 10 11 11 10 9 9 -4 7 5 5 6 6 6
2 6 6 7 7 7 8 8 7 9 8 9 9 9 8 8 8 8 9 9 10 11 10 10 6 1 6 6 6 6 6 6
0 6 7 7 7 8 8 8 8 8 7 9 9 9 8 8 8 9 9 9 9 10 10 8 6 4 7 6 6 5 5 5
2 6 5 6 7 8 8 8 8 7 6 9 9 9 8 8 8 8 8 9 8 9 9 8 6 6 7 7 5 4 5 4
-2 3 6 7 8 8 8 9 8 6 4 9 9 9 8 8 8 8 9 9 9 8 8 8 6 8 6 6 5 4 4 3
6 8 7 7 8 8 9 9 7 5 3 8 9 9 8 7 8 8 8 9 9 8 8 9 8 8 8 7 5 4 3 3
7 6 6 7 8 8 9 8 7 5 2 7 9 9 8 8 8 7 8 7 8 8 8 8 8 8 8 7 5 2 1 1
8 7 7 7 8 8 8 8 7 5 1 6 8 8 7 8 8 7 8 8 7 7 7 6 6 5 5 5 4 2 1 1
8 8 7 7 7 8 8 8 6 4 1 5 8 8 8 8 8 8 7 7 7 7 7 5 5 4 3 3 3 3 2 3
8 8 7 7 8 8 8 9 8 6 3 3 7 9 8 8 8 8 7 7 7 6 5 3 4 4 3 3 3 3 2 4
7 8 8 8 8 8 8 8 8 7 5 1 4 8 8 8 8 8 7 7 7 5 5 4 4 4 5 4 3 2 2 3
7 9 9 9 9 8 8 8 8 8 7 3 3 7 8 8 8 8 8 8 7 6 5 4 4 3 3 3 2 2 3 3
4 8 9 9 9 9 9 9 9 8 8 7 4 5 5 7 8 8 8 8 8 7 7 6 5 4 3 2 2 2 2 3
6 6 5 6 8 10 10 9 9 9 9 8 8 6 5 6 6 8 8 8 8 8 8 7 7 7 5 3 3 3 3 3
6 5 5 6 5 6 8 9 10 10 9 9 8 8 8 7 8 8 7 7 8 8 8 8 8 8 8 7 6 6 5 2
5 4 3 3 3 4 6 7 7 8 10 9 9 9 9 9 9 9 9 8 8 7 7 8 8 7 8 8 8 8 7 7
5 5 3 3 4 4 6 7 7 9 10 10 10 9 9 9 9 9 9 9 9 9 8 8 8 7 7 7 8 9 8 7

GFSFLT1_850_dewp_096.txt.gz
Dewpoint
-4 -6 -7 -3 2 3 6 8 7 7 7 8 9 10 9 9 9 10 11 10 9 9 8 8 9 8 10 9 9 8 7 7
-3 -4 -6 -6 2 3 5 8 7 8 7 7 8 9 9 9 8 9 10 10 10 10 9 9 9 9 9 7 8 8 7 7
-4 -4 -6 -7 -2 2 5 8 7 8 7 7 8 7 7 8 8 8 9 11 9 10 11 10 10 9 10 7 7 8 7 7
-3 -3 -6 -6 -4 -0 4 7 8 8 8 8 8 8 8 8 8 8 8 9 10 10 10 10 10 10 10 8 7 6 7 7
-3 -3 -4 -5 -3 1 5 6 8 8 8 8 8 7 6 6 7 7 8 9 9 9 10 10 10 10 10 9 6 5 6 6
-4 -3 -4 -4 3 2 6 6 8 8 8 8 7 7 6 6 7 8 8 8 8 8 9 10 10 10 10 10 6 3 3 6
-3 -3 -2 -2 3 7 7 6 7 8 9 8 7 6 5 7 7 7 8 9 8 9 9 9 10 9 9 9 6 2 -1 5
-4 -4 -4 -1 1 6 8 7 8 8 9 8 7 5 6 7 7 8 8 8 9 8 9 8 9 9 9 9 7 2 3 4
-2 -3 -4 -4 1 5 8 7 8 8 8 8 7 5 6 7 7 7 8 8 8 9 8 9 9 9 9 9 6 3 4 5
-0 -2 -3 -3 1 4 7 8 7 8 8 8 7 4 6 6 7 8 8 8 8 9 8 8 8 9 9 8 7 5 4 5
5 -2 -1 1 4 7 9 8 7 8 8 8 7 4 5 6 7 7 7 7 9 8 8 8 8 8 8 7 6 4 6 7
7 5 5 7 8 10 10 9 8 8 8 8 7 4 5 7 7 7 7 7 7 8 8 8 8 8 7 6 6 6 7 6
9 9 9 9 9 10 10 10 9 9 9 8 7 5 5 7 8 7 7 7 7 8 8 8 9 8 8 7 7 7 7 8
10 10 10 9 10 10 10 10 9 9 9 9 8 7 5 5 6 7 7 8 8 8 8 8 8 8 8 7 7 7 7 7
7 8 9 9 10 10 9 9 10 10 9 9 9 8 8 6 6 6 6 7 8 8 8 8 7 8 8 8 7 7 6 6
5 6 8 8 9 10 10 10 10 10 10 10 9 9 9 8 7 7 7 6 6 7 8 8 8 7 7 8 7 7 6 5
3 4 6 6 8 8 9 9 10 10 10 10 10 10 9 9 9 8 8 8 8 7 7 7 7 8 8 7 7 6 6 4
4 3 4 5 7 7 7 8 8 9 9 9 9 8 9 9 9 9 9 9 9 9 9 9 8 8 7 7 8 8 8 7
4 4 4 4 5 5 7 8 8 8 8 8 8 8 9 9 9 9 9 9 9 9 9 9 9 9 9 9 9 8 8 8

GFSFLT1_850_dewp_099.txt.gz
Dewpoint
-5 -4 -5 -6 -6 1 6 7 7 9 6 5 7 9 10 9 9 9 10 10 9 8 7 8 9 10 9 9 10 10 9 8
-4 -5 -4 -3 -4 -5 4 7 7 9 7 6 7 7 9 10 8 9 10 11 10 9 7 7 8 9 9 10 9 8 6 7
-4 -5 -4 -4 -4 -5 -3 5 7 8 7 7 7 6 8 9 9 8 9 9 10 10 10 8 9 9 9 10 8 9 8 6
-5 -5 -5 -4 -3 -6 -6 0 5 8 8 8 7 7 8 8 8 9 10 9 10 9 10 10 10 10 9 7 10 9 8 8
-4 -5 -5 -5 -4 -4 -3 2 4 7 8 8 7 7 5 5 6 7 8 9 9 10 9 10 10 10 10 8 9 9 8 7
-2 -4 -6 -5 -3 -4 -2 3 6 7 8 8 8 8 6 7 6 8 8 8 8 9 10 10 9 10 10 10 9 9 8 7
-0 -2 -2 -3 -2 -1 1 2 4 8 8 8 8 8 6 6 6 7 7 8 8 8 9 9 9 10 10 10 9 8 7 7
1 -0 -2 -2 -2 1 4 1 4 7 8 8 8 8 6 6 6 7 6 7 8 8 9 9 9 10 9 10 9 9 8 7
5 -0 -2 -0 1 5 4 0 5 7 8 8 9 8 7 5 6 7 7 9 9 9 9 9 9 8 8 9 9 9 9 7
6 2 -2 2 1 3 1 2 7 7 8 8 9 8 7 4 7 7 7 8 8 8 8 8 9 9 9 9 8 9 9 7
7 4 -0 -1 3 6 6 7 9 9 9 9 9 8 6 4 7 7 7 8 8 8 8 8 9 9 9 9 8 9 8 6
9 7 4 3 4 8 8 10 11 10 9 9 9 8 6 5 7 7 7 7 8 8 8 8 8 8 8 8 8 8 7 6
9 9 9 9 10 9 10 9 10 10 9 9 9 8 6 4 6 7 7 7 8 8 8 8 7 7 8 8 7 7 7 6
6 8 9 9 9 9 9 9 10 11 10 9 9 8 6 4 6 7 7 7 7 7 8 8 8 8 8 8 7 7 6 5
4 6 6 8 8 9 9 9 10 10 9 9 9 8 8 5 6 7 7 7 7 7 7 7 8 8 8 8 8 8 7 6
2 3 4 5 8 8 8 9 10 10 10 10 9 9 9 9 6 6 7 7 7 7 8 8 8 8 7 7 7 8 8 7
1 3 4 4 5 7 8 9 9 9 9 10 10 10 9 9 9 7 7 7 7 7 6 6 6 7 7 7 7 7 7 7
1 2 3 2 4 6 7 8 8 9 8 9 9 9 8 8 9 9 9 9 8 8 8 8 8 8 8 8 7 8 8 8
1 1 3 3 3 5 6 7 7 8 8 8 8 8 8 8 8 8 8 8 8 9 9 9 9 8 9 9 9 9 8 8

GFSFLT1_850_dewp_102.txt.gz
Dewpoint
-4 -4 -3 0 5 8 10 7 7 7 7 9 11 4 6 9 8 10 9 10 10 9 10 9 8 10 10 10 10 10 9 10
-4 -4 -2 -1 2 8 9 10 9 7 7 9 7 5 6 9 8 7 9 9 10 10 8 7 9 10 10 10 10 10 9 9
-4 -3 -3 -1 -0 1 7 6 9 5 7 8 8 6 7 9 9 8 9 9 9 10 8 7 7 10 10 9 10 10 10 9
-4 -3 -3 -2 1 -1 0 5 11 9 9 10 9 7 7 10 9 9 8 9 9 10 9 7 7 9 10 8 8 8 8 8
-4 -4 -3 -3 0 2 4 8 10 11 11 9 8 6 7 9 9 7 10 8 8 10 10 10 8 9 9 10 9 9 7 6
1 -1 -3 -2 -1 4 6 8 10 11 11 9 8 8 10 10 9 6 9 9 8 10 9 9 10 9 9 9 9 9 8 6
4 2 -0 -1 -2 3 8 9 10 11 10 9 8 8 9 10 7 9 9 9 9 9 9 10 10 9 10 10 9 8 9 9
6 5 2 -0 0 7 9 10 10 10 8 9 8 8 8 9 9 9 9 9 8 8 8 9 9 10 10 10 10 9 9 9
8 6 5 1 5 9 10 10 10 10 8 9 9 8 10 10 8 9 9 9 8 8 8 8 9 9 9 10 10 9 9 9
9 8 6 3 7 9 10 10 10 11 10 9 9 8 10 10 9 8 8 7 9 9 8 8 9 9 9 9 9 9 9 9
9 10 7 4 8 10 11 11 11 11 10 10 9 9 9 9 8 6 7 6 8 8 8 8 9 9 9 8 8 9 9 9
7 9 10 8 9 10 11 10 11 11 10 10 9 9 9 9 8 6 6 6 8 8 8 8 8 9 9 9 9 9 9 8
5 7 9 10 9 11 10 10 10 10 10 10 10 9 9 8 8 6 6 7 8 8 8 8 8 8 9 8 9 8 8 8
3 4 7 9 9 9 9 9 9 9 10 11 10 9 9 8 8 8 7 7 7 8 8 8 7 7 7 7 7 7 7 7
1 1 3 8 8 9 9 9 9 9 9 10 10 9 8 8 8 7 7 7 8 7 8 7 7 7 7 7 7 7 6 6
1 0 1 5 7 8 8 9 9 9 10 9 9 8 8 7 7 7 7 7 8 8 8 8 8 7 7 7 7 7 8 7
2 -1 -1 1 4 6 8 9 9 9 9 8 9 9 9 9 7 7 7 7 8 8 8 8 8 8 8 8 7 8 7 8
0 0 -1 -0 2 3 5 8 8 8 8 8 8 8 8 9 9 9 8 8 8 8 8 7 8 7 7 7 8 8 8 8
0 1 0 -0 0 3 4 6 6 7 7 7 8 8 8 9 8 8 8 8 8 8 8 8 7 8 8 8 8 8 7 8

GFSFLT1_850_dewp_105.txt.gz
Dewpoint
-6 -8 -8 -5 -2 2 6 12 14 14 13 13 13 13 11 9 11 11 11 10 10 11 11 10 10 10 9 10 10 11 10 10
-5 -5 -7 -6 -3 3 7 10 14 13 7 11 12 13 9 6 4 7 11 11 11 10 11 10 9 8 8 10 10 10 10 10
-5 -4 -4 -4 -2 1 7 9 12 13 6 10 12 12 9 8 6 8 8 11 10 11 11 10 7 6 8 10 10 10 10 10
-5 -4 -3 -3 -2 -0 4 8 10 13 12 12 12 12 11 8 8 8 8 9 10 10 10 10 7 6 8 10 10 10 10 10
-5 -5 -4 -3 -2 -2 2 6 8 11 13 12 12 12 12 9 10 8 10 10 10 10 10 10 8 7 8 10 9 9 9 9
3 2 0 -3 -3 -2 0 4 7 10 12 11 12 12 12 11 11 10 9 10 11 10 9 10 9 7 7 9 9 9 9 8
5 4 3 0 -2 -2 -1 4 7 9 12 12 12 12 11 11 11 11 9 9 11 10 9 9 10 10 8 9 9 9 8 9
6 7 6 3 0 -1 -1 5 6 8 11 12 12 12 11 11 11 10 10 10 10 10 9 9 9 9 9 9 10 10 9 9
7 9 9 6 3 0 -0 3 7 8 11 12 12 12 12 11 11 9 9 10 10 9 9 10 9 10 10 9 9 9 9 9
7 8 9 9 6 1 1 7 8 8 11 12 12 12 12 11 11 9 9 10 10 9 9 9 9 9 9 9 10 9 10 9
6 6 9 9 6 3 8 10 9 10 12 11 12 12 12 11 11 10 10 9 9 9 8 8 9 9 9 9 10 9 9 9
5 5 8 9 8 8 10 10 10 11 11 11 11 11 12 11 10 10 10 8 10 9 8 9 9 8 9 9 9 9 9 9
3 4 6 8 10 11 10 10 11 11 10 10 11 11 11 11 10 9 10 9 9 9 8 8 8 8 9 9 9 9 9 9
2 3 4 4 8 10 9 10 10 10 10 10 10 11 11 11 10 9 10 9 10 9 8 9 8 8 8 9 9 9 9 9
2 1 2 1 3 8 9 9 10 10 10 10 10 10 10 10 9 9 9 9 10 10 9 8 8 8 9 8 8 8 8 7
1 1 1 -1 1 4 8 9 9 9 9 10 10 10 10 9 9 9 9 9 9 9 8 8 9 9 8 9 8 8 8 8
-1 -1 1 -1 -1 1 4 8 9 9 9 9 9 9 9 8 9 8 8 9 9 8 8 8 8 8 9 8 9 9 9 9
-1 -1 -0 0 -1 -0 1 4 6 8 8 9 9 9 9 8 8 9 9 8 8 8 8 8 8 8 8 8 8 8 8 8
-2 -1 -1 1 0 -0 1 2 3 5 6 6 7 8 8 8 8 8 8 8 8 7 8 8 8 7 8 7 8 7 8 8

GFSFLT1_850_dewp_111.txt.gz
Dewpoint
-6 -6 -6 -6 -8 -9 -5 8 9 9 10 12 13 12 11 11 10 9 6 1 7 10 9 11 11 12 11 11 11 11 10 10
-5 -6 -6 -6 -6 -8 -8 5 9 11 12 13 12 12 13 13 11 10 8 5 2 6 8 10 11 11 11 12 11 11 11 11
-5 -4 -5 -5 -5 -6 -4 2 7 11 11 10 10 10 13 13 12 11 9 7 3 4 8 10 11 10 11 11 11 11 10 9
-6 -5 -5 -4 -4 -6 -7 1 5 10 10 12 12 13 13 13 13 11 9 8 5 5 8 9 11 11 11 10 11 11 10 9
-0 0 1 2 -1 -1 3 -0 7 10 9 10 11 10 9 13 13 12 11 9 7 7 7 8 10 10 10 10 8 7 10 10
6 6 6 6 4 4 2 10 9 11 10 8 8 11 10 10 13 13 12 9 9 10 8 8 9 9 9 9 7 7 9 10
5 4 5 6 6 7 6 3 7 8 9 9 3 8 9 10 13 13 12 9 10 10 7 9 8 9 9 8 7 8 9 10
3 2 1 2 3 6 7 7 4 8 8 8 2 8 9 8 12 13 11 10 9 8 7 9 11 9 9 9 7 8 10 10
3 3 3 4 6 7 8 9 7 4 9 8 6 8 11 10 11 12 11 9 9 10 7 9 10 9 8 9 7 9 8 9
2 2 4 6 7 8 9 9 8 6 4 7 8 9 11 10 12 12 11 10 9 8 7 10 10 10 9 9 7 8 8 8
1 1 2 4 6 8 10 10 7 6 4 6 8 8 10 10 11 11 11 11 10 7 7 9 10 10 10 10 10 9 9 9
1 1 1 2 5 7 9 11 10 7 4 7 8 8 9 10 11 11 11 11 10 10 8 9 9 9 9 9 9 9 9 9
0 0 0 1 3 5 8 10 11 11 12 9 8 9 9 10 10 11 11 10 10 10 9 8 9 9 8 8 9 9 9 9
0 0 -0 -0 1 3 6 8 10 10 10 11 10 9 9 10 11 12 11 10 10 10 9 8 10 9 8 8 9 9 8 9
-1 -0 -0 -0 -0 2 3 5 8 9 10 9 11 11 10 10 10 12 11 10 10 9 8 9 9 8 9 9 9 8 9 9
-2 -2 -1 0 -0 0 2 3 5 7 9 10 10 10 11 11 11 11 11 10 9 9 8 8 8 8 8 8 9 8 9 9
-2 -2 -1 -0 -0 -0 0 2 2 4 6 8 9 10 10 11 10 10 10 9 9 8 8 8 8 8 8 8 8 8 8 8
-3 -3 -2 -2 -1 -0 -0 1 2 2 3 4 6 8 9 10 10 10 9 9 9 8 8 8 8 8 8 7 7 7 8 8
-4 -3 -2 -2 -1 -1 -0 1 1 1 1 2 3 4 5 6 8 9 9 9 8 8 8 8 8 8 8 8 8 8 8 8

GFSFLT1_850_dewp_117.txt.gz
Dewpoint
-5 -6 -6 -7 -7 -7 -8 -6 -3 4 11 11 10 10 10 8 6 6 5 5 5 4 4 7 10 11 12 12 12 12 11 11
-5 -5 -5 -6 -6 -6 -6 -7 -7 -3 9 11 12 10 10 11 10 9 8 7 7 5 4 7 10 11 12 11 12 12 12 11
-5 -5 -5 -5 -5 -5 -5 -5 -6 -6 -2 2 10 11 10 11 11 12 11 9 8 7 6 5 9 11 12 11 11 10 10 10
-2 -1 -0 0 -0 -0 -1 -4 -3 -4 -2 2 11 13 13 10 10 11 12 11 10 8 7 5 7 10 13 11 11 10 10 10
4 3 6 6 7 7 4 0 2 5 9 12 12 9 10 8 7 8 9 11 10 10 9 7 6 8 10 11 12 11 9 9
4 4 5 6 6 8 10 11 10 11 14 13 11 11 10 11 9 9 9 10 10 11 10 8 6 7 9 10 10 10 11 10
2 3 4 4 5 6 7 10 13 13 14 14 14 11 11 9 9 10 9 9 10 11 11 10 7 6 7 9 10 10 10 10
1 2 3 4 5 4 5 6 8 10 13 14 14 13 10 10 7 8 11 9 8 10 11 11 10 8 8 9 11 11 11 11
-0 0 2 3 5 6 6 4 4 6 8 11 13 14 13 11 7 6 10 7 6 8 10 12 11 11 10 11 11 11 11 10
-0 -0 0 2 4 5 6 7 8 9 8 8 8 10 12 11 11 10 9 8 7 8 10 12 12 12 11 11 10 10 10 10
-1 -1 -1 1 3 4 6 7 8 9 9 10 8 7 7 10 10 8 9 9 8 8 9 12 12 12 11 11 10 9 9 10
-1 -1 0 0 2 3 5 6 7 8 9 10 10 8 7 5 8 9 7 9 9 8 8 10 11 11 11 11 10 9 9 9
-1 -1 0 1 1 1 3 5 6 6 7 9 10 11 10 11 8 7 8 8 9 9 8 9 10 10 10 10 9 8 8 9
-1 -1 -1 0 1 1 1 2 3 4 6 8 9 10 10 11 12 9 8 9 9 9 9 10 10 10 10 10 9 8 8 9
-2 -1 -1 -1 -0 0 1 1 2 3 4 6 8 9 10 10 11 11 11 10 9 8 9 9 11 9 8 9 8 8 9 8
-3 -3 -2 -1 -1 -0 0 0 1 2 3 4 5 6 8 9 11 11 11 11 10 9 9 10 10 10 9 8 8 8 8 9
-5 -3 -3 -2 -2 -1 -1 -0 0 1 1 2 3 4 6 7 9 10 10 10 10 11 10 11 10 10 9 8 8 8 8 9
-5 -4 -4 -3 -3 -3 -2 -1 -1 0 0 1 1 2 3 4 5 7 8 8 9 10 10 10 10 9 9 8 7 8 8 9
-7 -5 -4 -4 -4 -3 -3 -2 -1 -1 -1 -0 -0 0 1 1 2 3 4 3 3 7 9 9 9 9 8 8 8 8 8 8

GFSFLT1_850_dewp_123.txt.gz
Dewpoint
-6 -5 -5 -6 -6 -6 -1 6 9 6 3 3 3 3 3 3 0 -1 1 2 2 3 4 4 6 7 8 10 11 11 12 12
-5 -7 -4 -5 -6 -6 5 10 11 11 10 8 7 7 6 5 4 2 2 3 3 4 4 4 5 7 7 9 10 11 12 11
0 -0 -1 -2 -4 -5 3 9 12 12 12 11 11 10 10 10 9 7 5 3 2 4 3 4 4 5 7 8 10 11 12 10
3 4 4 3 1 -1 -4 2 9 11 11 12 11 12 12 12 11 10 9 7 5 5 4 6 5 6 5 6 8 11 11 9
2 3 4 6 5 4 2 -4 -2 6 11 10 11 9 8 8 7 11 11 11 9 8 6 9 8 8 7 6 7 12 10 10
1 1 3 4 7 8 8 5 -1 -4 -3 13 14 14 12 9 6 8 9 10 10 10 9 10 11 10 9 9 8 10 11 10
-0 1 2 4 5 7 8 9 6 4 3 6 13 13 13 13 11 11 10 10 11 12 10 9 10 10 10 10 10 9 9 10
-1 -0 1 3 4 5 7 9 10 10 10 12 12 13 13 14 13 13 13 12 10 10 10 9 8 8 8 10 11 10 9 10
-1 -1 -1 1 3 5 6 8 9 10 11 12 12 12 12 12 13 13 13 11 9 9 9 10 7 4 5 6 10 11 10 9
-2 -2 -2 -1 2 3 5 6 6 8 9 10 11 11 12 12 12 12 12 12 12 10 8 9 9 7 6 4 8 12 11 9
-3 -3 -3 -2 -1 2 4 5 6 7 5 6 8 8 9 10 11 11 11 12 12 10 9 10 9 7 5 8 9 11 12 10
-4 -4 -3 -3 -2 0 2 4 5 6 7 7 7 8 9 9 9 9 9 10 12 12 12 11 9 7 7 8 8 9 11 11
-5 -4 -4 -3 -2 -1 1 2 4 4 5 6 7 8 8 9 9 9 10 11 10 11 12 12 11 7 7 8 9 9 10 11
-5 -4 -5 -4 -4 -2 -1 0 1 1 3 4 5 6 7 7 8 9 10 10 10 11 10 11 11 10 10 9 9 9 8 10
-6 -5 -5 -5 -5 -2 -1 -1 -0 0 1 2 3 3 4 5 6 7 9 9 10 10 10 10 10 11 12 11 10 9 8 9
-7 -6 -5 -5 -6 -5 -2 -1 -0 -0 -0 0 1 1 2 3 4 6 6 7 8 9 9 10 10 10 10 10 10 11 11 10
-7 -6 -6 -6 -6 -6 -4 -3 -1 -1 -0 -0 -0 0 0 1 2 2 4 5 6 7 7 8 8 8 10 10 10 10 10 10
-8 -7 -7 -7 -6 -7 -7 -5 -4 -2 -1 -1 -1 -0 -0 -0 0 1 1 2 2 3 4 5 5 6 8 9 8 10 9 10
-8 -7 -7 -7 -6 -6 -6 -6 -6 -5 -3 -2 -2 -1 -1 -0 -0 -0 0 1 1 1 2 2 3 4 5 7 8 9 9 9

GFSFLT1_850_dewp_126.txt.gz
Dewpoint
-10 -12 -14 -7 -2 -2 -3 5 13 13 11 9 13 12 3 1 1 0 1 2 4 3 2 4 5 7 7 8 10 10 11 12
-10 -11 -8 3 3 4 -1 3 11 13 13 12 12 12 7 5 4 2 2 2 3 4 3 3 3 5 6 6 8 10 12 12
-0 1 3 4 4 2 2 6 8 13 14 12 10 11 11 10 11 8 2 2 2 4 4 5 4 5 7 8 8 10 11 12
2 1 2 4 5 5 5 8 11 13 14 13 12 12 13 13 12 11 8 7 6 4 5 8 8 6 5 6 7 8 10 11
1 2 3 3 3 4 5 7 10 13 14 14 14 13 14 13 13 13 13 10 9 9 7 11 11 6 6 6 7 8 10 11
-0 0 1 1 3 5 6 7 8 11 13 14 14 14 14 14 14 13 11 10 11 12 12 9 9 7 7 7 8 9 11 11
-1 -1 -0 1 2 3 5 6 7 8 12 13 9 12 14 14 13 14 14 13 11 12 13 11 10 8 8 9 9 9 10 11
-2 -2 -1 -1 1 2 3 6 8 9 10 12 13 13 13 13 13 13 13 13 13 11 14 14 12 11 10 9 9 6 4 9
-4 -3 -2 -2 -1 -0 2 5 6 8 9 10 11 12 12 12 12 13 13 13 13 13 13 14 13 10 10 10 9 6 3 6
-5 -4 -4 -3 -2 -2 -1 2 4 7 8 9 10 11 11 11 12 12 12 12 12 12 13 13 13 11 10 10 9 7 8 8
-5 -5 -4 -4 -3 -3 -1 1 4 6 6 7 8 9 10 10 9 10 10 9 10 12 12 13 13 13 11 10 8 11 9 9
-5 -5 -5 -5 -4 -3 -1 -0 1 3 4 6 6 7 8 8 7 6 5 8 6 10 11 12 12 12 12 13 11 10 9 8
-5 -5 -6 -5 -4 -3 -2 -1 1 1 2 4 6 7 8 8 8 8 8 8 10 10 11 10 11 11 13 12 11 10 9 9
-6 -5 -6 -5 -5 -3 -3 -2 -2 -0 2 4 5 6 6 7 7 7 8 9 9 10 10 11 11 11 11 11 12 11 9 9
-6 -6 -6 -6 -6 -4 -3 -1 -0 1 1 1 1 2 3 3 4 5 6 7 7 8 9 10 10 10 10 11 10 11 11 11
-6 -7 -7 -6 -6 -6 -4 -3 -2 -1 -1 -1 -1 -0 1 1 2 3 3 4 5 5 6 6 7 8 9 10 10 10 10 10
-7 -8 -8 -7 -7 -7 -6 -5 -3 -3 -2 -2 -2 -1 -0 0 0 1 1 1 2 2 3 4 4 5 6 8 9 10 10 10
-8 -9 -9 -9 -8 -8 -7 -7 -6 -4 -3 -2 -2 -2 -1 -1 -1 -1 -1 -0 0 0 1 1 2 3 4 5 7 8 9 9
-9 -8 -8 -9 -9 -8 -8 -8 -7 -7 -6 -4 -4 -3 -3 -2 -2 -2 -2 -1 -2 -1 -1 -1 -0 0 2 3 4 6 6 6

GFSFLT1_850_dewp_129.txt.gz
Dewpoint
-2 -2 -4 -8 -8 -5 2 1 -1 5 13 13 14 13 13 13 12 13 13 10 5 13 13 14 9 13 13 10 12 11 13 12
-0 0 1 0 2 4 4 5 3 1 12 13 14 13 13 12 11 12 13 13 2 4 10 11 5 7 8 7 10 14 12 12
-0 0 1 2 3 3 4 4 2 1 10 12 13 13 12 11 10 10 4 8 5 0 3 11 7 7 9 9 9 13 11 11
-0 0 1 2 3 3 4 4 5 1 7 12 12 13 12 12 12 12 11 7 8 2 1 8 8 5 8 8 13 13 11 8
-1 -1 -0 -0 1 1 3 4 5 8 9 12 12 12 12 11 11 11 12 13 13 12 6 8 11 9 9 12 11 12 12 11
-2 -2 -2 -1 -0 0 2 3 5 7 9 12 13 12 12 11 11 12 13 13 14 14 13 13 12 12 12 12 10 12 12 12
-3 -3 -3 -2 -1 -0 1 3 5 7 9 12 12 13 12 12 12 13 14 14 14 14 14 13 13 13 13 12 12 11 8 10
-3 -4 -4 -3 -2 -1 -0 1 3 5 8 10 11 12 13 12 10 8 13 13 13 13 14 14 13 13 13 13 12 11 9 9
-4 -4 -5 -4 -3 -2 -1 -0 1 3 7 9 8 10 10 10 7 7 12 13 13 13 13 13 13 14 13 13 13 12 12 10
-5 -5 -5 -5 -4 -3 -2 -1 -1 1 6 8 9 8 10 10 9 11 12 12 12 12 12 12 12 13 13 13 13 13 13 12
-5 -5 -6 -6 -5 -4 -3 -2 -2 -1 4 7 9 9 8 9 10 10 10 11 11 11 11 12 11 12 12 12 12 13 13 13
-5 -6 -6 -6 -5 -5 -4 -3 -2 -1 3 4 6 6 7 6 7 7 8 8 8 8 9 10 12 11 12 11 12 12 13 12
-5 -6 -6 -6 -6 -5 -4 -4 -3 -2 0 3 4 4 4 5 6 7 7 7 8 9 10 10 11 11 11 11 12 12 12 12
-6 -6 -6 -6 -6 -6 -4 -3 -3 -3 -2 -1 -1 0 3 4 5 6 7 7 7 8 9 10 10 11 11 11 11 12 12 11
-6 -7 -7 -7 -6 -6 -6 -5 -4 -3 -2 -2 -0 0 1 2 3 4 4 5 6 7 7 7 7 8 9 10 10 11 11 11
-6 -7 -7 -6 -6 -6 -6 -5 -4 -3 -1 -2 -1 -1 -0 1 1 1 1 2 2 3 3 4 4 5 6 7 8 9 10 10
-7 -7 -7 -7 -7 -6 -6 -6 -4 -3 -2 -3 -2 -2 -1 -1 -2 -2 -1 -1 -1 -0 1 1 1 2 3 4 5 6 7 8
-7 -8 -8 -8 -7 -7 -7 -7 -7 -6 -6 -5 -5 -4 -4 -4 -3 -3 -3 -3 -3 -3 -2 -2 -2 -0 0 2 3 4 4 5
-7 -8 -8 -7 -7 -7 -7 -8 -8 -8 -8 -7 -7 -6 -6 -6 -5 -5 -5 -5 -5 -4 -4 -4 -3 -2 -2 -1 0 1 2 2

GFSFLT1_850_dewp_132.txt.gz
Dewpoint
-2 -2 -1 -1 -1 2 2 3 3 3 3 5 13 11 13 13 14 14 13 9 10 11 14 13 14 12 12 12 12 12 12 12
-3 -2 -2 -1 0 0 2 3 4 4 4 4 9 12 11 13 14 13 13 11 9 9 13 12 13 13 12 12 12 12 13 12
-3 -2 -2 -1 -0 0 1 2 3 1 -1 5 8 9 12 11 13 13 13 13 12 8 11 12 11 9 13 14 14 13 12 12
-3 -3 -3 -2 -1 -1 0 1 2 -0 -5 -1 3 6 12 12 12 13 13 13 11 11 8 13 12 7 8 13 14 13 11 12
-3 -3 -3 -3 -2 -2 -1 1 2 3 0 3 5 7 10 12 11 14 13 12 13 10 11 9 12 10 7 8 11 9 11 12
-3 -3 -4 -4 -3 -2 -1 -0 1 3 4 4 6 6 6 12 12 13 13 12 11 12 10 9 13 12 10 9 12 12 11 12
-4 -4 -5 -5 -4 -3 -1 -0 0 2 4 5 6 8 8 12 12 13 12 13 13 13 12 12 10 12 12 11 12 13 12 12
-4 -5 -5 -5 -4 -3 -2 -1 -1 1 3 4 6 8 10 12 13 10 12 13 13 13 13 14 13 13 13 14 13 12 13 12
-5 -5 -5 -5 -5 -4 -3 -2 -1 0 2 3 6 8 10 11 11 11 8 9 8 7 12 13 13 13 12 13 13 13 12 12
-5 -5 -5 -5 -5 -4 -4 -3 -2 -1 0 1 3 7 10 10 9 9 9 9 6 6 12 12 12 12 12 12 13 13 12 12
-5 -5 -6 -6 -5 -5 -4 -4 -2 -2 -1 -0 1 6 7 8 9 9 6 9 9 10 11 11 12 12 12 12 12 12 12 12
-5 -6 -6 -6 -5 -5 -5 -4 -4 -2 -2 -2 -0 5 6 7 7 7 7 9 9 9 10 11 11 11 12 11 12 11 11 11
-6 -6 -6 -6 -6 -6 -5 -4 -5 -3 -2 -2 0 2 4 5 4 7 6 7 7 7 9 9 10 10 11 11 11 11 11 11
-6 -6 -6 -6 -6 -6 -6 -5 -5 -4 -3 -2 -1 0 1 3 3 3 4 5 5 5 6 7 7 8 8 9 9 10 10 10
-6 -7 -7 -6 -6 -6 -6 -6 -6 -5 -4 -4 -3 -3 -2 -1 0 1 2 2 3 2 2 3 3 4 5 6 7 8 9 10
-6 -7 -7 -7 -6 -6 -6 -5 -6 -5 -6 -5 -5 -4 -4 -3 -2 -2 -2 -1 -1 0 1 1 2 1 2 3 4 5 6 7
-7 -7 -7 -6 -7 -7 -7 -6 -6 -5 -5 -5 -4 -5 -4 -4 -4 -4 -4 -4 -3 -2 -2 -2 -1 -0 1 1 2 3 3 4
-7 -9 -7 -7 -6 -7 -8 -9 -9 -9 -9 -8 -7 -7 -6 -6 -6 -6 -6 -6 -7 -7 -6 -5 -4 -3 -3 -2 -2 -1 -0 1
-8 -9 -9 -7 -8 -7 -9 -11 -12 -14 -16 -16 -14 -13 -13 -10 -9 -9 -9 -9 -8 -8 -8 -8 -8 -7 -6 -5 -4 -3 -3 -3

GFSFLT1_850_dewp_135.txt.gz
Dewpoint
-6 -7 -7 -7 -7 -7 -6 -7 -7 -5 -2 -0 0 3 10 13 13 12 13 14 13 13 12 13 13 12 11 12 13 12 12 11
-5 -5 -6 -6 -6 -6 -5 -5 -6 -5 -4 -2 -2 -2 3 12 13 13 12 13 14 13 11 14 14 12 12 11 13 13 12 12
-4 -4 -5 -5 -5 -5 -4 -4 -3 -3 -2 -1 1 -1 -3 -0 9 13 12 11 13 13 13 12 14 12 13 12 12 12 12 13
-4 -4 -4 -5 -5 -4 -4 -4 -3 -1 0 0 0 0 -3 -7 -5 10 12 12 14 13 12 12 13 14 12 12 12 11 12 13
-4 -4 -5 -5 -5 -5 -4 -3 -2 -1 1 2 2 2 2 -8 -12 -5 12 13 13 13 12 11 12 13 14 13 11 13 13 12
-5 -4 -5 -5 -5 -4 -4 -3 -2 -0 1 2 2 3 4 2 -8 -7 -2 13 13 13 13 13 11 14 12 12 12 13 14 13
-5 -5 -5 -5 -5 -5 -4 -3 -2 -1 0 1 2 3 4 5 2 -1 -8 10 13 13 12 13 13 13 13 11 8 10 13 13
-5 -5 -6 -6 -5 -5 -4 -3 -2 -1 -0 1 2 3 4 6 8 11 -1 11 12 11 12 14 14 12 12 13 12 11 13 12
-5 -6 -6 -6 -6 -5 -4 -3 -2 -2 -1 0 2 4 5 6 9 10 8 9 10 8 7 11 12 13 13 13 12 12 12 13
-5 -6 -6 -6 -6 -5 -4 -3 -3 -2 -2 -1 -0 1 3 3 8 5 9 9 8 9 8 9 7 10 10 12 13 13 12 11
-6 -6 -6 -6 -6 -5 -4 -3 -3 -3 -2 -2 -1 -1 1 1 7 7 8 8 9 8 8 9 7 8 6 12 12 12 12 12
-6 -6 -6 -6 -6 -5 -4 -3 -4 -4 -3 -3 -3 -2 -2 -1 6 7 7 8 9 9 9 9 10 10 11 11 11 11 11 12
-6 -6 -6 -6 -6 -5 -5 -4 -4 -4 -4 -4 -4 -4 -3 1 3 4 5 5 7 7 8 7 8 9 9 10 10 11 10 10
-5 -5 -6 -6 -6 -6 -5 -5 -4 -5 -4 -5 -5 -5 -4 -0 1 3 4 3 5 6 7 7 7 7 8 8 8 8 8 8
-7 -7 -7 -7 -7 -7 -6 -5 -4 -6 -5 -5 -4 -5 -5 -4 -2 0 2 1 3 3 3 3 4 4 4 5 5 5 6 6
-9 -8 -7 -7 -10 -11 -10 -9 -5 -5 -3 -4 -4 -5 -5 -5 -6 -6 -5 -4 -3 -2 0 0 1 1 1 1 2 2 3 3
-10 -8 -8 -7 -10 -11 -11 -13 -15 -14 -13 -7 -5 -5 -7 -6 -7 -8 -8 -8 -8 -7 -7 -6 -5 -4 -4 -2 -2 -2 -2 0
-10 -10 -9 -8 -9 -12 -12 -13 -14 -16 -18 -17 -15 -14 -15 -12 -13 -15 -14 -14 -13 -13 -12 -11 -10 -9 -8 -7 -6 -5 -5 -4
-11 -12 -11 -10 -10 -11 -14 -13 -14 -15 -16 -18 -21 -22 -20 -19 -19 -20 -20 -19 -19 -19 -19 -18 -17 -16 -15 -15 -14 -14 -11 -9

GFSFLT1_850_dewp_138.txt.gz
Dewpoint
-6 -6 -6 -6 -6 -6 -6 -6 -6 -7 -7 -8 -8 -8 -7 -7 -5 6 13 14 13 13 13 12 12 12 12 12 12 12 12 10
-5 -6 -6 -6 -6 -6 -6 -6 -5 -5 -5 -6 -6 -7 -8 -7 -7 -7 7 13 13 13 13 12 11 12 12 12 12 12 13 12
-5 -5 -5 -5 -5 -5 -5 -5 -5 -4 -3 -2 -1 -1 -4 -6 -7 -8 -6 8 11 11 12 13 12 11 13 13 13 12 13 12
-5 -5 -5 -5 -5 -5 -5 -5 -4 -4 -3 -1 0 0 0 -2 -3 -6 -9 -9 5 11 13 13 13 12 11 13 13 12 13 13
-5 -5 -5 -6 -6 -6 -5 -4 -4 -3 -2 -1 -0 1 1 2 1 -2 -7 -10 -7 -2 12 12 13 13 12 11 13 12 12 12
-4 -5 -6 -6 -6 -5 -5 -4 -3 -2 -2 -1 -0 1 1 2 2 2 -2 -10 -11 -1 6 12 12 13 12 12 13 13 12 12
-5 -6 -6 -5 -6 -5 -5 -4 -3 -3 -2 -1 -0 1 1 2 2 3 1 -4 -3 -3 1 7 12 11 13 12 12 13 12 13
-5 -6 -6 -5 -5 -5 -5 -4 -4 -3 -2 -2 -0 -0 1 2 4 3 5 7 9 8 -0 8 10 9 11 13 13 13 13 12
-5 -5 -6 -5 -5 -5 -5 -4 -4 -3 -3 -2 -2 -1 -0 2 3 5 6 8 8 8 6 9 9 9 9 12 13 12 14 13
-5 -5 -6 -6 -5 -5 -5 -5 -4 -3 -3 -3 -3 -2 -0 1 2 3 6 6 8 7 7 8 9 7 6 7 12 12 12 12
-5 -5 -5 -5 -5 -5 -5 -4 -5 -4 -4 -4 -4 -3 -2 -0 -0 0 3 6 7 9 9 8 8 7 7 9 10 9 11 11
-5 -6 -5 -5 -5 -5 -5 -5 -5 -5 -4 -5 -5 -5 -4 -3 -3 -2 -1 3 7 8 8 9 7 8 8 9 8 8 7 5
-5 -7 -8 -7 -6 -5 -5 -5 -5 -4 -5 -4 -4 -6 -5 -6 -6 -5 -2 2 7 7 6 8 8 7 8 8 8 8 9 9
-7 -8 -10 -11 -10 -8 -5 -5 -4 -4 -3 -4 -3 -5 -6 -6 -7 -7 -2 0 3 5 4 6 6 5 6 6 5 3 6 6
-8 -9 -13 -13 -15 -14 -12 -7 -5 -4 -4 -5 -6 -5 -5 -6 -5 -4 -3 -0 1 1 2 2 2 3 4 3 3 2 2 3
-9 -9 -10 -14 -16 -16 -19 -19 -17 -12 -10 -9 -7 -6 -9 -10 -10 -11 -8 -7 -5 -5 -4 -2 -2 -2 -2 -2 0 0 -0 -1
-9 -10 -10 -13 -14 -16 -16 -19 -21 -20 -17 -18 -14 -16 -17 -19 -22 -21 -21 -20 -17 -14 -12 -11 -11 -11 -11 -10 -10 -9 -9 -9
-11 -10 -10 -12 -13 -13 -16 -15 -17 -22 -25 -23 -22 -25 -23 -22 -25 -28 -29 -28 -27 -28 -30 -30 -27 -24 -24 -25 -24 -23 -22 -21
-12 -12 -12 -12 -13 -14 -14 -16 -14 -17 -21 -26 -29 -29 -29 -30 -30 -30 -30 -31 -33 -33 -33 -34 -34 -35 -35 -32 -32 -31 -29 -27

GFSFLT1_850_dewp_141.txt.gz
Dewpoint
-5 -5 -6 -6 -6 -6 -6 -6 -6 -6 -6 -5 -5 -5 -6 -7 -8 -9 -9 -8 -5 7 12 13 13 12 11 10 11 12 12 11
-6 -6 -5 -6 -5 -5 -5 -5 -5 -5 -5 -5 -4 -3 -3 -5 -5 -7 -9 -7 -6 -5 4 12 13 13 12 11 11 12 13 12
-5 -5 -5 -5 -5 -5 -5 -5 -5 -5 -4 -4 -3 -2 -1 0 -0 -3 -6 -7 -6 -5 -5 3 12 13 12 12 11 12 13 12
-5 -5 -5 -5 -5 -5 -5 -5 -5 -5 -4 -4 -3 -2 -1 0 2 1 -1 -3 -4 -4 -6 -4 9 10 11 12 11 11 12 13
-5 -5 -5 -5 -5 -5 -5 -5 -5 -5 -4 -3 -3 -2 -1 -0 1 1 1 0 -2 -3 -7 -7 -4 11 12 12 13 11 11 12
-5 -5 -5 -5 -5 -5 -5 -5 -4 -5 -4 -3 -3 -2 -2 -1 0 1 2 1 1 -1 -4 -9 -7 6 11 7 8 12 11 11
-5 -5 -5 -5 -5 -5 -5 -5 -5 -5 -4 -4 -3 -2 -2 -1 -0 1 2 4 5 5 -2 -7 1 6 8 10 11 11 11 11
-5 -5 -5 -5 -5 -5 -5 -5 -5 -5 -4 -4 -3 -3 -2 -1 -1 1 2 4 4 6 6 6 8 6 8 10 10 12 12 11
-5 -5 -5 -5 -5 -5 -5 -5 -5 -5 -5 -5 -5 -3 -3 -1 -1 -0 1 3 4 6 7 7 7 7 6 5 9 9 8 12
-5 -5 -5 -5 -5 -5 -5 -5 -5 -6 -6 -6 -5 -4 -3 -3 -2 -1 1 2 4 6 8 7 8 7 5 4 10 9 9 8
-5 -6 -7 -6 -5 -4 -4 -5 -5 -6 -6 -6 -6 -5 -4 -4 -3 -2 -0 0 2 5 7 8 8 8 4 7 9 9 10 9
-5 -8 -11 -9 -6 -4 -4 -5 -5 -5 -6 -7 -7 -6 -5 -5 -5 -4 -3 -3 -2 0 5 7 8 9 8 8 9 9 9 8
-7 -11 -14 -13 -13 -7 -4 -4 -4 -5 -5 -6 -7 -5 -5 -4 -5 -5 -6 -5 -4 -2 1 4 5 6 7 8 8 7 8 8
-8 -13 -17 -15 -17 -17 -15 -9 -7 -5 -5 -4 -5 -6 -4 -4 -4 -5 -6 -6 -6 -4 -2 1 2 4 5 4 4 5 6 5
-9 -14 -17 -17 -17 -20 -21 -19 -16 -15 -11 -11 -11 -12 -9 -5 -4 -4 -3 -6 -5 -4 -3 -2 -0 0 1 2 3 3 2 2
-9 -13 -16 -16 -18 -20 -23 -25 -22 -22 -21 -20 -19 -19 -19 -20 -20 -18 -15 -15 -13 -14 -11 -12 -11 -11 -8 -5 -2 -1 -1 -2
-10 -12 -15 -15 -16 -16 -19 -26 -28 -28 -28 -27 -25 -25 -27 -30 -29 -28 -28 -28 -28 -29 -27 -25 -26 -26 -26 -27 -28 -26 -25 -22
-11 -12 -13 -14 -14 -16 -17 -20 -23 -27 -30 -31 -31 -31 -31 -32 -32 -32 -32 -33 -33 -32 -32 -31 -29 -27 -27 -27 -29 -29 -29 -30
-12 -12 -12 -13 -15 -16 -17 -18 -21 -22 -25 -28 -28 -29 -31 -32 -33 -33 -34 -34 -34 -33 -31 -29 -31 -32 -34 -34 -33 -34 -33 -31

GFSFLT1_850_dewp_147.txt.gz
Dewpoint
-5 -6 -6 -5 -5 -6 -6 -6 -6 -6 -6 -6 -5 -5 -5 -5 -5 -5 -5 -4 -4 -4 -5 -7 -9 -8 -3 9 11 13 12 13
-5 -5 -5 -5 -5 -5 -5 -5 -5 -5 -5 -5 -5 -5 -5 -5 -5 -5 -4 -2 -1 -1 -1 -3 -6 -7 -7 -4 9 12 13 13
-5 -5 -5 -5 -5 -4 -4 -4 -4 -5 -5 -5 -5 -5 -5 -5 -5 -5 -4 -2 -1 0 1 -1 -2 -4 -5 -3 -4 9 10 12
-5 -5 -4 -4 -4 -4 -4 -4 -5 -5 -5 -5 -5 -5 -5 -5 -4 -3 -2 -1 -1 -0 1 2 1 1 -1 -1 3 4 7 9
-5 -4 -4 -4 -4 -4 -4 -4 -5 -5 -5 -5 -6 -5 -5 -5 -4 -4 -3 -2 -1 -0 1 2 3 2 1 -2 -2 1 5 7
-4 -5 -4 -4 -4 -4 -4 -4 -4 -5 -5 -6 -6 -6 -6 -5 -5 -5 -3 -2 -1 -0 1 1 2 4 4 3 -3 -4 4 8
-4 -6 -4 -3 -3 -4 -4 -4 -4 -4 -5 -6 -6 -7 -6 -6 -6 -5 -4 -2 -0 0 1 2 2 3 4 5 2 -3 1 10
-5 -7 -6 -4 -3 -4 -4 -3 -4 -4 -4 -6 -6 -7 -7 -7 -6 -5 -4 -3 -1 1 1 2 2 3 5 6 4 -0 0 10
-6 -9 -9 -8 -4 -4 -5 -3 -3 -4 -4 -5 -6 -7 -7 -7 -7 -6 -5 -4 -3 -2 -0 2 3 4 5 7 7 4 2 9
-7 -11 -13 -12 -8 -7 -8 -4 -4 -7 -4 -4 -6 -7 -7 -7 -6 -6 -6 -4 -3 -2 -1 1 3 4 5 6 7 7 8 9
-8 -14 -16 -18 -19 -14 -13 -8 -10 -18 -7 -4 -5 -6 -6 -6 -6 -6 -6 -5 -3 -2 -1 -0 2 3 4 5 7 8 8 8
-9 -16 -18 -20 -21 -20 -19 -20 -23 -24 -25 -13 -4 -4 -5 -6 -6 -6 -6 -5 -6 -5 -4 -2 1 0 -1 -0 3 6 7 8
-10 -16 -19 -23 -24 -22 -23 -25 -26 -28 -28 -29 -23 -10 -4 -4 -4 -5 -6 -6 -5 -5 -5 -4 -4 -3 -3 -4 -2 0 4 5
-12 -17 -19 -24 -26 -24 -27 -29 -29 -31 -32 -31 -29 -27 -27 -21 -13 -6 -5 -5 -4 -3 -3 -3 -4 -4 -5 -5 -5 -3 -2 -1
-14 -17 -18 -22 -27 -28 -31 -31 -31 -32 -32 -32 -32 -30 -30 -27 -28 -29 -27 -26 -24 -21 -16 -14 -7 -5 -2 -4 -4 -3 -4 -2
-12 -15 -17 -19 -24 -29 -31 -31 -31 -32 -32 -32 -32 -32 -33 -33 -32 -33 -31 -31 -35 -33 -31 -31 -28 -25 -20 -19 -19 -16 -13 -16
-12 -16 -17 -17 -21 -24 -28 -29 -28 -30 -31 -32 -32 -33 -34 -34 -35 -36 -35 -32 -33 -35 -35 -36 -35 -29 -27 -29 -31 -31 -30 -33
-12 -16 -16 -16 -18 -22 -25 -26 -27 -28 -30 -31 -32 -33 -34 -34 -34 -35 -37 -35 -36 -37 -36 -36 -35 -35 -37 -39 -38 -38 -38 -37
-12 -16 -16 -16 -17 -19 -22 -24 -26 -26 -27 -28 -29 -31 -32 -33 -34 -34 -33 -35 -35 -34 -34 -37 -38 -38 -38 -38 -39 -38 -38 -39